Terug naar catalogus

STARLINK-2699

ActiefCommunicatieVLEO
NORAD 48433·PAYLOAD·🇺🇸 United States

Gelanceerd May 9, 2021 vanaf Cape Canaveral Space Force Station

Loading…

Volgende Passages (komende 24 uur)

TLE

VersSource: CelesTrak SupGP

Epoch: Sep 15, 2026, 02:09 UTC

1 48433C 21040F   26258.09006944  .00043108  00000+0  13861-2 0  2588
2 48433  53.1612 351.1925 0001135  92.5920  75.4738 15.31684085    11

Volg STARLINK-2699 in realtime met AllMySat

Download on the App Store